Date String (YYYY-MM-DD hh:mm:ss) UTC,Instrument flags,absolute air pressure of the measurement (hPa),sample flow rate (lpm),inlet stack bypass flow (lpm),air temperature of the measurement (°C),ambient temperature measured by the external sensor (°C),aerosol sample conditioner tube jacket temperature (°C),OPC LED temperature (°C),internal box temperature (°C),relative humidity of the measurement (%),span deviation,mass concentration of particles derived from Lorenz-Mie calculation of OPC scattering (μg/m³),mass concentration of particles derived from Lorenz-Mie calculation of OPC scattering (μg/m³),mass concentration of particles derived from Lorenz-Mie calculation of OPC scattering (μg/m³)
DateTimeUTC,F1_M11,P_M11,Q1_M11,Q2_M11,T1_M11,T2_M11,T3_M11,T4_M11,T5_M11,U1_M11,ZSPAN_M11,X2_M11,X0_M11,X1_M11
2024-03-09 01:00:00,SystemResetWarning,0833.3,5.00,000.00,018.7,018.6,000.0,027.1,020.7,18.5,0000.0,0005.07,0006.84,0004.97
2024-03-09 01:01:00,SystemResetWarning,0833.2,5.00,000.00,018.7,018.5,000.0,027.1,020.5,18.6,0000.0,0005.08,0006.91,0004.97
2024-03-09 01:02:00,SystemResetWarning,0833.2,5.01,000.00,018.7,018.3,000.0,027.1,020.4,18.6,0000.0,0005.08,0006.96,0004.96
2024-03-09 01:03:00,SystemResetWarning,0833.2,5.00,000.00,018.6,018.1,000.0,027.1,020.3,18.7,0000.0,0005.08,0006.78,0004.96
2024-03-09 01:04:00,SystemResetWarning,0833.2,4.99,000.00,018.6,018.0,000.0,027.1,020.3,18.8,0000.0,0005.10,0006.69,0004.96
2024-03-09 01:05:00,SystemResetWarning,0833.3,4.99,000.00,018.5,017.9,000.0,027.1,020.2,18.8,0000.0,0005.10,0006.75,0004.96
2024-03-09 01:06:00,SystemResetWarning,0833.2,5.01,000.00,018.5,017.8,000.0,027.1,020.1,18.9,0000.0,0005.12,0006.86,0004.96
2024-03-09 01:07:00,SystemResetWarning,0833.2,5.00,000.00,018.5,017.7,000.0,027.0,020.1,18.9,0000.0,0005.13,0006.97,0004.96
2024-03-09 01:08:00,SystemResetWarning,0833.2,5.00,000.00,018.4,017.6,000.0,027.0,020.1,18.9,0000.0,0005.12,0006.98,0004.94
2024-03-09 01:09:00,SystemResetWarning,0833.3,5.00,000.00,018.4,017.5,000.0,027.0,020.0,19.0,0000.0,0005.14,0007.10,0004.95
2024-03-09 01:10:00,SystemResetWarning,0833.3,5.01,000.00,018.4,017.5,000.0,027.0,020.0,19.0,0000.0,0005.12,0007.04,0004.94
2024-03-09 01:11:00,SystemResetWarning,0833.3,5.01,000.00,018.3,017.5,000.0,027.0,020.0,19.0,0000.0,0005.09,0006.94,0004.93
2024-03-09 01:12:00,SystemResetWarning,0833.3,4.98,000.00,018.3,017.4,000.0,027.0,020.0,19.1,0000.0,0005.07,0006.83,0004.93
2024-03-09 01:13:00,SystemResetWarning,0833.4,4.99,000.00,018.3,017.4,000.0,027.0,020.0,19.1,0000.0,0005.06,0006.76,0004.93
2024-03-09 01:14:00,SystemResetWarning,0833.4,5.01,000.00,018.3,017.4,000.0,027.0,020.0,19.1,0000.0,0005.07,0006.78,0004.93
2024-03-09 01:15:00,SystemResetWarning,0833.4,5.01,000.00,018.3,017.3,000.0,027.0,020.0,19.1,0000.0,0005.05,0006.69,0004.93
2024-03-09 01:16:00,SystemResetWarning,0833.4,5.00,000.00,018.2,017.3,000.0,027.0,020.0,19.1,0000.0,0005.04,0006.59,0004.93
2024-03-09 01:17:00,SystemResetWarning,0833.4,4.99,000.00,018.2,017.2,000.0,027.0,020.0,19.1,0000.0,0005.02,0006.51,0004.93
2024-03-09 01:18:00,SystemResetWarning,0833.4,4.99,000.00,018.2,017.2,000.0,027.0,020.0,19.1,0000.0,0005.02,0006.42,0004.93
2024-03-09 01:19:00,SystemResetWarning,0833.4,5.00,000.00,018.2,017.2,000.0,027.0,020.0,19.1,0000.0,0005.04,0006.44,0004.94
2024-03-09 01:20:00,SystemResetWarning,0833.4,5.00,000.00,018.2,017.1,000.0,027.0,020.0,19.0,0000.0,0005.05,0006.83,0004.94
2024-03-09 01:21:00,SystemResetWarning,0833.4,5.00,000.00,018.2,017.1,000.0,027.0,020.0,19.0,0000.0,0005.08,0007.13,0004.95
2024-03-09 01:22:00,SystemResetWarning,0833.4,5.00,000.00,018.2,017.1,000.0,027.0,020.0,19.0,0000.0,0005.14,0007.34,0004.96
2024-03-09 01:23:00,SystemResetWarning,0833.4,5.01,000.00,018.2,017.1,000.0,027.0,020.0,19.1,0000.0,0005.16,0007.38,0004.96
2024-03-09 01:24:00,SystemResetWarning,0833.4,5.01,000.00,018.2,017.2,000.0,027.0,020.1,19.1,0000.0,0005.17,0007.40,0004.97
2024-03-09 01:25:00,SystemResetWarning,0833.4,5.00,000.00,018.3,018.1,000.0,027.1,020.5,19.0,0000.0,0005.17,0007.54,0004.98
2024-03-09 01:26:00,SystemResetWarning,0833.4,5.01,000.00,018.6,018.8,000.0,027.1,020.9,18.7,0000.0,0005.19,0007.84,0004.99
2024-03-09 01:27:00,SystemResetWarning,0833.4,4.99,000.00,018.6,018.7,000.0,027.1,020.8,18.6,0000.0,0005.21,0007.90,0005.01
2024-03-09 01:28:00,SystemResetWarning,0833.4,4.98,000.00,018.6,018.5,000.0,027.1,020.6,18.7,0000.0,0005.29,0007.99,0005.08
2024-03-09 01:29:00,SystemResetWarning,0833.4,5.01,000.00,018.6,018.3,000.0,027.0,020.4,18.7,0000.0,0005.38,0008.10,0005.18
2024-03-09 01:30:00,SystemResetWarning,0833.4,5.00,000.00,018.6,018.2,000.0,027.0,020.3,18.8,0000.0,0005.47,0008.21,0005.27
2024-03-09 01:31:00,SystemResetWarning,0833.4,5.00,000.00,018.5,018.0,000.0,027.0,020.2,18.8,0000.0,0005.49,0008.08,0005.30
2024-03-09 01:32:00,SystemResetWarning,0833.4,5.00,000.00,018.5,017.9,000.0,027.0,020.1,18.9,0000.0,0005.50,0007.90,0005.33
2024-03-09 01:33:00,SystemResetWarning,0833.4,5.00,000.00,018.4,017.7,000.0,027.0,020.1,18.9,0000.0,0005.47,0007.81,0005.34
2024-03-09 01:34:00,SystemResetWarning,0833.4,5.00,000.00,018.4,017.6,000.0,027.0,020.0,19.0,0000.0,0005.48,0007.86,0005.35
2024-03-09 01:35:00,SystemResetWarning,0833.4,4.99,000.00,018.4,017.5,000.0,027.0,020.0,19.1,0000.0,0005.48,0007.88,0005.34
2024-03-09 01:36:00,SystemResetWarning,0833.4,4.99,000.00,018.3,017.4,000.0,027.0,020.0,19.2,0000.0,0005.49,0007.78,0005.33
2024-03-09 01:37:00,SystemResetWarning,0833.4,5.00,000.00,018.3,017.3,000.0,027.0,020.0,19.2,0000.0,0005.47,0007.43,0005.33
2024-03-09 01:38:00,SystemResetWarning,0833.4,5.00,000.00,018.3,017.2,000.0,027.0,020.0,19.3,0000.0,0005.46,0007.40,0005.32
2024-03-09 01:39:00,SystemResetWarning,0833.4,5.00,000.00,018.2,017.1,000.0,027.0,020.0,19.4,0000.0,0005.42,0007.38,0005.26
2024-03-09 01:40:00,SystemResetWarning,0833.4,5.01,000.00,018.2,017.1,000.0,027.0,020.0,19.5,0000.0,0005.33,0007.26,0005.18
2024-03-09 01:41:00,SystemResetWarning,0833.4,5.02,000.00,018.2,017.0,000.0,027.1,020.0,19.5,0000.0,0005.25,0007.07,0005.10
2024-03-09 01:42:00,SystemResetWarning,0833.4,5.00,000.00,018.3,017.5,000.0,027.1,020.2,19.5,0000.0,0005.22,0006.99,0005.07
2024-03-09 01:43:00,SystemResetWarning,0833.5,5.00,000.00,018.5,018.5,000.0,027.2,020.8,19.3,0000.0,0005.21,0006.98,0005.06
2024-03-09 01:44:00,SystemResetWarning,0833.5,5.00,000.00,018.7,018.9,000.0,027.2,021.0,19.1,0000.0,0005.21,0007.00,0005.07
2024-03-09 01:45:00,SystemResetWarning,0833.5,4.99,000.00,018.7,018.7,000.0,027.1,020.8,19.1,0000.0,0005.23,0006.91,0005.09
2024-03-09 01:46:00,SystemResetWarning,0833.4,5.00,000.00,018.7,018.5,000.0,027.1,020.6,19.2,0000.0,0005.26,0007.22,0005.13
2024-03-09 01:47:00,SystemResetWarning,0833.4,5.00,000.00,018.6,018.3,000.0,027.1,020.4,19.2,0000.0,0005.30,0007.67,0005.15
2024-03-09 01:48:00,SystemResetWarning,0833.5,5.01,000.00,018.6,018.1,000.0,027.1,020.3,19.3,0000.0,0005.34,0007.96,0005.17
2024-03-09 01:49:00,SystemResetWarning,0833.5,5.00,000.00,018.5,017.9,000.0,027.1,020.2,19.3,0000.0,0005.36,0008.41,0005.20
2024-03-09 01:50:00,SystemResetWarning,0833.5,5.00,000.00,018.5,017.8,000.0,027.1,020.1,19.4,0000.0,0005.39,0008.44,0005.22
2024-03-09 01:51:00,SystemResetWarning,0833.5,5.00,000.00,018.4,017.7,000.0,027.0,020.0,19.4,0000.0,0005.41,0008.45,0005.24
2024-03-09 01:52:00,SystemResetWarning,0833.6,5.00,000.00,018.4,017.5,000.0,027.0,020.0,19.5,0000.0,0005.42,0008.48,0005.24
2024-03-09 01:53:00,SystemResetWarning,0833.6,5.00,000.00,018.3,017.4,000.0,027.0,020.0,19.6,0000.0,0005.47,0008.60,0005.27
2024-03-09 01:54:00,SystemResetWarning,0833.6,5.00,000.00,018.3,017.3,000.0,027.0,020.0,19.6,0000.0,0005.48,0008.64,0005.28
2024-03-09 01:55:00,SystemResetWarning,0833.6,5.01,000.00,018.3,017.3,000.0,027.0,020.0,19.7,0000.0,0005.50,0008.65,0005.30
2024-03-09 01:56:00,SystemResetWarning,0833.6,5.01,000.00,018.3,017.2,000.0,027.0,020.0,19.7,0000.0,0005.51,0008.84,0005.31
2024-03-09 01:57:00,SystemResetWarning,0833.6,5.00,000.00,018.2,017.1,000.0,027.1,020.0,19.7,0000.0,0005.51,0008.79,0005.30
2024-03-09 01:58:00,SystemResetWarning,0833.7,4.98,000.00,018.2,017.1,000.0,027.1,020.0,19.8,0000.0,0005.51,0008.61,0005.30
2024-03-09 01:59:00,SystemResetWarning,0833.7,5.00,000.00,018.2,017.0,000.0,027.1,020.0,19.8,0000.0,0005.50,0008.57,0005.30
